• In Germany
  • List of Countries
  • For 7 days
  • Water Temperature
  • Satellite Maps
  • Weather Map
  • Weather Widgets
  • user-avatar
    Login

    Hourly Weather Belmopan

    Today, 29 June, Thursday

    Time Temperature Precipitation Wind Pressure Humidity
    00:00 +27°C° 0.9 mm 2 mps 752 mmHg 95%
    01:00 +27°C° 1 mm 2 mps 751 mmHg 94%
    02:00 +27°C° 1 mm 2 mps 751 mmHg 94%
    03:00 +27°C° 1 mm 2 mps 751 mmHg 94%
    04:00 +27°C° 0 mm 2 mps 751 mmHg 92%
    05:00 +27°C° 0 mm 2 mps 751 mmHg 91%
    06:00 +27°C° 0 mm 2 mps 751 mmHg 90%
    07:00 +29°C° 0.1 mm 2 mps 752 mmHg 81%
    08:00 +31°C° 0.1 mm 3 mps 752 mmHg 72%
    09:00 +33°C° 0.1 mm 3 mps 752 mmHg 63%
    10:00 +34°C° 0 mm 3 mps 752 mmHg 56%
    11:00 +36°C° 0 mm 3 mps 752 mmHg 50%
    12:00 +37°C° 0 mm 3 mps 752 mmHg 44%
    13:00 +37°C° 0 mm 3 mps 752 mmHg 43%
    14:00 +36°C° 0 mm 3 mps 751 mmHg 42%
    15:00 +36°C° 0 mm 4 mps 751 mmHg 41%
    16:00 +35°C° 0 mm 3 mps 751 mmHg 51%
    17:00 +33°C° 0 mm 3 mps 750 mmHg 60%
    18:00 +30°C° 0 mm 3 mps 750 mmHg 70%
    19:00 +30°C° 0 mm 2 mps 751 mmHg 75%
    20:00 +29°C° 0 mm 2 mps 751 mmHg 80%
    21:00 +28°C° 0 mm 2 mps 752 mmHg 85%
    22:00 +28°C° 0 mm 2 mps 752 mmHg 87%
    23:00 +28°C° 0 mm 2 mps 752 mmHg 89%

    Tomorrow, 30 June, Friday

    Time Temperature Precipitation Wind Pressure Humidity
    00:00 +28°C° 0 mm 2 mps 752 mmHg 90%
    01:00 +28°C° 0 mm 2 mps 752 mmHg 91%
    02:00 +27°C° 0 mm 1 mps 752 mmHg 92%
    03:00 +27°C° 0 mm 1 mps 751 mmHg 93%
    04:00 +27°C° 0.1 mm 1 mps 752 mmHg 93%
    05:00 +27°C° 0.1 mm 1 mps 752 mmHg 94%
    06:00 +27°C° 0.1 mm 1 mps 752 mmHg 94%
    07:00 +28°C° 0.2 mm 2 mps 752 mmHg 86%
    08:00 +30°C° 0.2 mm 2 mps 753 mmHg 78%
    09:00 +31°C° 0.2 mm 3 mps 753 mmHg 70%
    10:00 +33°C° 0.1 mm 3 mps 753 mmHg 63%
    11:00 +35°C° 0.1 mm 3 mps 752 mmHg 56%
    12:00 +36°C° 0.1 mm 3 mps 752 mmHg 49%
    13:00 +36°C° 0 mm 3 mps 752 mmHg 49%
    14:00 +36°C° 0 mm 3 mps 751 mmHg 49%
    15:00 +36°C° 0 mm 3 mps 751 mmHg 49%
    16:00 +34°C° 0 mm 3 mps 751 mmHg 56%
    17:00 +32°C° 0 mm 2 mps 751 mmHg 63%
    18:00 +31°C° 0 mm 2 mps 751 mmHg 70%
    19:00 +29°C° 0 mm 2 mps 752 mmHg 77%
    20:00 +28°C° 0 mm 1 mps 752 mmHg 84%
    21:00 +27°C° 0 mm 1 mps 753 mmHg 91%
    22:00 +27°C° 0 mm 1 mps 753 mmHg 92%
    23:00 +27°C° 0 mm 1 mps 753 mmHg 93%

    Day after tomorrow, 1 July, Saturday

    Time Temperature Precipitation Wind Pressure Humidity
    00:00 +26°C° 0 mm 1 mps 753 mmHg 94%
    01:00 +26°C° 0 mm 1 mps 752 mmHg 94%
    02:00 +27°C° 0 mm 1 mps 752 mmHg 93%
    03:00 +27°C° 0 mm 1 mps 751 mmHg 93%
    04:00 +27°C° 0 mm 1 mps 752 mmHg 93%
    05:00 +27°C° 0 mm 1 mps 752 mmHg 92%
    06:00 +27°C° 0 mm 1 mps 752 mmHg 92%
    07:00 +28°C° 0.1 mm 1 mps 752 mmHg 86%
    08:00 +29°C° 0.1 mm 2 mps 753 mmHg 80%
    09:00 +31°C° 0.1 mm 2 mps 753 mmHg 73%
    10:00 +32°C° 0.2 mm 2 mps 753 mmHg 67%
    11:00 +34°C° 0.2 mm 2 mps 753 mmHg 61%
    12:00 +35°C° 0.2 mm 2 mps 753 mmHg 54%
    13:00 +35°C° 0.1 mm 3 mps 752 mmHg 55%
    14:00 +35°C° 0.1 mm 3 mps 752 mmHg 56%
    15:00 +35°C° 0.1 mm 3 mps 751 mmHg 57%
    16:00 +33°C° 0.1 mm 3 mps 751 mmHg 62%
    17:00 +31°C° 0.1 mm 2 mps 751 mmHg 68%
    18:00 +30°C° 0.1 mm 2 mps 751 mmHg 74%
    19:00 +29°C° 0.2 mm 2 mps 752 mmHg 80%
    20:00 +28°C° 0.2 mm 1 mps 753 mmHg 87%
    21:00 +27°C° 0.2 mm 1 mps 753 mmHg 93%
    22:00 +26°C° 0.8 mm 1 mps 753 mmHg 95%
    23:00 +26°C° 0.8 mm 1 mps 753 mmHg 96%

    2 July, Sunday

    Time Temperature Precipitation Wind Pressure Humidity
    00:00 +26°C° 0.8 mm 1 mps 753 mmHg 98%
    01:00 +26°C° 0.1 mm 1 mps 753 mmHg 98%
    02:00 +25°C° 0.1 mm 1 mps 752 mmHg 98%
    03:00 +25°C° 0.1 mm 1 mps 752 mmHg 99%
    04:00 +26°C° 0.3 mm 1 mps 752 mmHg 98%
    05:00 +26°C° 0.3 mm 1 mps 752 mmHg 98%
    06:00 +26°C° 0.3 mm 1 mps 753 mmHg 97%
    07:00 +27°C° 1.2 mm 1 mps 753 mmHg 92%
    08:00 +29°C° 1.2 mm 2 mps 753 mmHg 86%
    09:00 +30°C° 1.2 mm 2 mps 754 mmHg 81%
    10:00 +31°C° 0.7 mm 2 mps 754 mmHg 77%
    11:00 +33°C° 0.7 mm 3 mps 753 mmHg 73%
    12:00 +33°C° 0.7 mm 3 mps 753 mmHg 69%
    13:00 +34°C° 0.4 mm 3 mps 753 mmHg 68%
    14:00 +34°C° 0.4 mm 3 mps 752 mmHg 66%
    15:00 +34°C° 0.4 mm 3 mps 751 mmHg 64%
    16:00 +33°C° 0.2 mm 3 mps 752 mmHg 69%
    17:00 +31°C° 0.2 mm 2 mps 752 mmHg 73%
    18:00 +30°C° 0.2 mm 2 mps 752 mmHg 78%
    19:00 +29°C° 0 mm 2 mps 752 mmHg 83%
    20:00 +28°C° 0 mm 1 mps 753 mmHg 88%
    21:00 +27°C° 0 mm 1 mps 754 mmHg 93%
    22:00 +27°C° 0 mm 1 mps 754 mmHg 94%
    23:00 +27°C° 0 mm 1 mps 753 mmHg 95%

    3 July, Monday

    Time Temperature Precipitation Wind Pressure Humidity
    00:00 +26°C° 0 mm 1 mps 753 mmHg 96%
    01:00 +26°C° 0 mm 1 mps 753 mmHg 96%
    02:00 +26°C° 0 mm 1 mps 753 mmHg 96%
    03:00 +26°C° 0 mm 1 mps 752 mmHg 97%
    04:00 +26°C° 0 mm 1 mps 752 mmHg 96%
    05:00 +27°C° 0 mm 1 mps 753 mmHg 95%
    06:00 +27°C° 0 mm 1 mps 753 mmHg 95%
    07:00 +28°C° 0.3 mm 1 mps 753 mmHg 88%
    08:00 +29°C° 0.3 mm 2 mps 753 mmHg 81%
    09:00 +30°C° 0.3 mm 2 mps 754 mmHg 74%
    10:00 +32°C° 0.2 mm 2 mps 753 mmHg 67%
    11:00 +34°C° 0.2 mm 2 mps 753 mmHg 61%
    12:00 +35°C° 0.2 mm 3 mps 753 mmHg 54%
    13:00 +35°C° 0 mm 3 mps 752 mmHg 52%
    14:00 +35°C° 0 mm 3 mps 752 mmHg 50%
    15:00 +36°C° 0 mm 3 mps 751 mmHg 47%
    16:00 +34°C° 0 mm 2 mps 751 mmHg 54%
    17:00 +32°C° 0 mm 2 mps 752 mmHg 61%
    18:00 +30°C° 0 mm 2 mps 752 mmHg 68%
    19:00 +29°C° 0 mm 2 mps 752 mmHg 76%
    20:00 +28°C° 0 mm 1 mps 752 mmHg 85%
    21:00 +26°C° 0 mm 1 mps 753 mmHg 94%
    22:00 +26°C° 0.2 mm 1 mps 753 mmHg 96%
    23:00 +26°C° 0.2 mm 1 mps 753 mmHg 97%

    4 July, Tuesday

    Time Temperature Precipitation Wind Pressure Humidity
    00:00 +25°C° 0.2 mm 1 mps 753 mmHg 99%
    01:00 +25°C° 0.4 mm 1 mps 752 mmHg 99%
    02:00 +25°C° 0.4 mm 1 mps 752 mmHg 99%
    03:00 +25°C° 0.4 mm 1 mps 751 mmHg 99%
    04:00 +25°C° 0.6 mm 1 mps 752 mmHg 98%
    05:00 +25°C° 0.6 mm 1 mps 752 mmHg 98%
    06:00 +26°C° 0.6 mm 1 mps 752 mmHg 98%
    07:00 +27°C° 1 mm 1 mps 752 mmHg 91%
    08:00 +29°C° 1 mm 1 mps 752 mmHg 84%
    09:00 +30°C° 1 mm 2 mps 753 mmHg 78%
    10:00 +31°C° 0.9 mm 2 mps 752 mmHg 77%
    11:00 +31°C° 0.9 mm 2 mps 752 mmHg 76%
    12:00 +31°C° 0.9 mm 2 mps 752 mmHg 76%
    13:00 +31°C° 1.2 mm 2 mps 751 mmHg 80%
    14:00 +30°C° 1.2 mm 2 mps 751 mmHg 84%
    15:00 +30°C° 1.2 mm 1 mps 751 mmHg 88%
    16:00 +29°C° 0.5 mm 1 mps 751 mmHg 89%
    17:00 +28°C° 0.5 mm 1 mps 751 mmHg 89%
    18:00 +27°C° 0.5 mm 1 mps 751 mmHg 89%
    19:00 +27°C° 0.2 mm 1 mps 751 mmHg 91%
    20:00 +26°C° 0.2 mm 1 mps 752 mmHg 93%
    21:00 +26°C° 0.2 mm 1 mps 752 mmHg 95%
    22:00 +26°C° 1.8 mm 1 mps 752 mmHg 96%
    23:00 +26°C° 1.8 mm 1 mps 752 mmHg 97%
    Show more